Weather History for Smyrna, TN

Change the Weather History Date:

Friday, April 13, 2012

  Actual Average Record
Temperature  
Mean Temperature 56 °F -  
Max Temperature 77 °F 67 °F 86 °F (2006)
Min Temperature 36 °F 48 °F 35 °F (2004)
Degree Days  
Heating Degree Days 10    
Growing Degree Days 6 (Base 50)    
Moisture  
Dew Point 38 °F    
Average Humidity 59    
Maximum Humidity 100    
Minimum Humidity 20    
Precipitation  
Precipitation 0.00 in - - ()
Sea Level Pressure  
Sea Level Pressure 30.18 in    
Wind  
Wind Speed 2 mph (SSE)    
Max Wind Speed 9 mph    
Max Gust Speed -    
Visibility 10 miles    
Events      
Averages and records for this station are not official NWS values.
T = Trace of Precipitation, MM = Missing Value Source: NWS Daily Summary

Daily Weather History Graph

Daily Weather History Graph

Search for Another Location

Airport:

Trip Planner

Search our weather history database for the weather conditions in past years. The results will help you decide how hot, cold, wet, or windy it might be!

Date:

Astronomy

Apr. 13, 2012 Rise Set
Actual Time 6:14 AM CDT 7:18 PM CDT
Civil Twilight 5:48 AM CDT 7:44 PM CDT
Nautical Twilight 5:17 AM CDT 8:16 PM CDT
Astronomical Twilight 4:45 AM CDT 8:48 PM CDT
Moon 1:45 AM CDT (4/13) 12:20 PM CDT (4/13)
Length of Visible Light 13h 56m
Length of Day
13h 03m
Waning Gibbous, 47% of the Moon is Illuminated
Apr 13
Waning Gibbous
Apr 21
New
Apr 29
First Quarter
May 5
Full
May 12
Last Quarter

Hourly Weather History & Observations

Time (CDT) Temp. Dew Point Humidity Pressure Visibility Wind Dir Wind Speed Gust Speed Precip Events Conditions
12:56 AM 39.9 °F 37.9 °F 93% 30.17 in 10.0 mi Calm Calm - N/A   Clear
1:56 AM 37.9 °F 36.0 °F 93% 30.17 in 10.0 mi Calm Calm - N/A   Clear
3:56 AM 36.9 °F 36.9 °F 100% 30.18 in 10.0 mi Calm Calm - N/A   Clear
4:56 AM 36.9 °F 36.9 °F 100% 30.19 in 10.0 mi Calm Calm - N/A   Clear
5:56 AM 37.9 °F 37.9 °F 100% 30.21 in 10.0 mi Calm Calm - N/A   Clear
6:56 AM 36.9 °F 36.9 °F 100% 30.23 in 10.0 mi Calm Calm - N/A   Clear
7:56 AM 41.9 °F 41.9 °F 100% 30.24 in 10.0 mi Calm Calm - N/A   Partly Cloudy
8:56 AM 52.0 °F 41.0 °F 66% 30.23 in 10.0 mi SSE 4.6 mph - N/A   Partly Cloudy
9:56 AM 61.0 °F 37.9 °F 42% 30.21 in 10.0 mi SE 9.2 mph - N/A   Clear
10:56 AM 65.8 °F 34.9 °F 32% 30.22 in 10.0 mi Variable 6.9 mph - N/A   Clear
11:56 AM 70.0 °F 34.0 °F 27% 30.22 in 10.0 mi South 5.8 mph - N/A   Clear
12:56 PM 72.0 °F 32.0 °F 23% 30.20 in 10.0 mi Variable 3.5 mph - N/A   Partly Cloudy
1:56 PM 73.9 °F 32.9 °F 22% 30.19 in 10.0 mi Calm Calm - N/A   Clear
2:56 PM 75.9 °F 34.0 °F 22% 30.16 in 10.0 mi Variable 5.8 mph - N/A   Clear
3:56 PM 75.9 °F 32.0 °F 20% 30.15 in 10.0 mi ESE 4.6 mph - N/A   Clear
4:56 PM 72.9 °F 34.0 °F 24% 30.14 in 10.0 mi Variable 4.6 mph - N/A   Clear
5:56 PM 72.9 °F 36.0 °F 26% 30.12 in 10.0 mi South 5.8 mph - N/A   Clear
6:56 PM 66.9 °F 36.9 °F 33% 30.14 in 10.0 mi Calm Calm - N/A   Clear
7:56 PM 61.9 °F 41.9 °F 48% 30.15 in 10.0 mi Calm Calm - N/A   Partly Cloudy
8:56 PM 57.9 °F 45.0 °F 62% 30.17 in 10.0 mi Calm Calm - 0.00 in   Clear
9:56 PM 57.9 °F 46.9 °F 67% 30.17 in 10.0 mi Calm Calm - N/A   Overcast
10:56 PM 54.9 °F 45.0 °F 69% 30.17 in 10.0 mi Calm Calm - N/A   Partly Cloudy
11:56 PM 52.9 °F 45.9 °F 77% 30.15 in 10.0 mi South 4.6 mph - N/A   Clear